Location: Brusselsch Zeekanaal
(50.8667°N, 4.3667°E)
Time: 14:09:09
(UTC+00:00)

H-2A R/B - Visible Passes

Search period start: 14 February 2026 00:00
Search period end: 24 February 2026 00:00
Orbit: 521 x 532 km, 98.2° (Epoch: 13 February)

Date Brightness Start Highest point End Pass type
(mag) Time Alt. Az. Time Alt. Az. Time Alt. Az.
14 Feb 5.7 03:51:52 10° NE 03:54:52 21° E 03:57:03 14° SE visible
14 Feb 3.7 05:25:38 10° N 05:29:13 38° WNW 05:32:18 13° SW visible
15 Feb 6.1 03:40:45 10° NE 03:43:15 17° E 03:45:44 10° SE visible
15 Feb 3.3 05:14:01 10° N 05:17:45 51° WNW 05:21:00 13° SW visible
16 Feb 6.3 03:29:52 10° ENE 03:31:36 13° E 03:33:19 10° ESE visible
16 Feb 3.1 05:02:26 10° N 05:06:16 69° WNW 05:09:42 12° SSW visible
17 Feb 3.1 04:50:53 10° NNE 04:54:44 88° ESE 04:58:22 11° SSW visible
18 Feb 3.5 04:39:22 10° NNE 04:43:11 66° ESE 04:46:57 10° S visible
18 Feb 4.9 06:14:42 10° NNW 06:16:55 15° WNW 06:19:09 10° W visible
19 Feb 4.1 04:27:52 10° NNE 04:31:36 48° E 04:35:17 10° S visible
19 Feb 4.7 06:02:46 10° NNW 06:05:30 19° WNW 06:08:12 10° WSW visible
20 Feb 4.7 04:16:26 10° NNE 04:19:59 36° E 04:23:30 10° SSE visible
20 Feb 4.4 05:50:56 10° N 05:54:01 24° WNW 05:57:06 10° WSW visible
21 Feb 5.3 04:05:01 10° NE 04:08:20 27° E 04:11:36 10° SSE visible
21 Feb 4.0 05:39:09 10° N 05:42:32 30° WNW 05:45:53 10° SW visible
22 Feb 5.7 03:53:42 10° NE 03:56:39 21° E 03:59:35 10° SE visible
22 Feb 3.7 05:27:25 10° N 05:31:00 39° WNW 05:34:34 10° SW visible
23 Feb 6.1 03:42:31 10° NE 03:44:57 16° E 03:47:21 10° SE visible
23 Feb 3.3 05:15:44 10° N 05:19:28 52° WNW 05:23:09 10° SSW visible
